STARLINK-31225, 59040

Orbit data source: Space-Track

STARLINK-31225, 59040 is a payload satellite owned by SpaceX/Seattle (US) in LEO that was launched on Sun, 25 Feb 2024 UTC via an FALCON 9 launch vehicle from the Air Force Eastern Test Range (AFETR). Payload-class satellites include a variety of spacecraft equipped with specific instruments for various scientific and technological missions. These include communications satellites like Starlink; space stations such as the ISS; scientific satellites like the Hubble; Earth observation satellites from companies like Planet Labs, Umbra, and HawkEye 360; GPS; miniature CubeSats for education and research; and military/defense satellites.

Loading next visibility...
Identifier
59040, 2024-038T
Orbit
LEO
Country
Flag of USUS
Related business
Manufacturer
SpaceX/Seattle
Mission
Operational Commercial Communications
Bus & Motor
STARLINK V2M, Unknown motor
Mass
730 kg wet, ~700 kg dry
Launch date (UTC)
2024-02-25 (2 years ago)
Launch vehicle
FALCON 9
Launch site
Air Force Eastern Test Range (AFETR)
Object type
Payload
Rocket body
Debris
Shape & HBR
Box + 2 Pan, 17.7 m
Radar Cross Section
33.884 m², Large (>1 m²)

Expand to show TLE details & history
Last TLE update: 1 day ago

TLE from 1 day ago
0 STARLINK-31225
1 59040U 24038T   25348.50811785  .00001420  00000-0  61130-4 0  9994
2 59040  43.0003 144.3382 0001356 247.9629 112.1078 15.27569155101669
Epoch: 2025-12-14T12:11Z
TLE epoch observation values (Epoch: 2025-12-14T12:11:41.382Z)
Latitude
-0.00005°
Longitude
-122.00431°
Altitude
483.207 km
Speed
7.625 km/s
True Right ascension
09h 37m 21s
True Declination
0° 00' 00"
Sunlit
Object was in full shadow at epoch
Visualization orbit readout
Latitude
Unknown
Longitude
Unknown
Altitude
Unknown
Speed
Unknown
Apparent Right ascension
Unknown
Apparent Declination
Unknown
Sunlit
N/A
Visualization observer readout
Local Sidereal Time
13:18:49
Azimuth
Unknown
Elevation
Unknown
Doppler factor
Unknown
Orbital elements
Apogee altitude
485.957 km
Perigee altitude
484.096 km
Semi-major axis
6,863.164 km
Eccentricity
0.00014
Inclination
43.0003°
RAAN
144.3382°
Arg. of periapsis
247.9629°
True anomaly
112.1222°
Mean anomaly
112.1078°
Eccentric anomaly
112.115°
Mean motion
3.8173 °/min
Orbital period
94.31 mins
BSTAR
0.00006113
Loading maneuver chart data...
Computing Atmospheric mass density...
Loading historical data...
Loading historical data...
Loading historical data...
Loading historical data...
Loading historical data...
Loading historical data...
Loading historical data...

Documentation

Showing up to 5 results
|